Volver al catálogo

BALKAN-3

ActivoCienciaSSO
NORAD 69903·PAYLOAD·🇧🇬 Bulgaria

Lanzado Jul 7, 2026 desde Vandenberg Space Force Base

Loading…

Próximos Pases (próximas 24 horas)

TLE

ActualizadoSource: Space-Track

Época: Sep 14, 2026, 11:06 UTC

1 69903U 26156AL  26257.46279323  .00001746  00000-0  18149-3 0  9999
2 69903  97.7495 156.7205 0001753 280.9918  79.1103 14.91171207 10307

Sigue BALKAN-3 en tiempo real con AllMySat

Download on the App Store